User: anonymous
Location: Unspecified
(0.0000°N, 0.0000°E)
Time: 22:11:13
(UTC+00:00)
Language:

deb Explorer IX - Orbit

View from above orbital plane
View from above orbital plane
View from above satellite
View from above satellite

Ground track
Ground track

The orbit data is extracted from the following two-line orbital elements,

1 00085U 61004C   14106.46473700  .00004623  00000-0  11880-2 0  9598
2 00085 038.7696 263.7144 0470384 005.5577 355.0147 14.00372734611628
Epoch (UTC): 16 April 2014 11:09:13
Eccentricity: 0.0470384
inclination: 38.7696°
perigee height: 550 km
apogee height: 1234 km
right ascension of ascending node: 263.7144°
argument of perigee: 5.5577°
revolutions per day: 14.00372734
mean anomaly at epoch: 355.0147°
orbit number at epoch: 61162

The dashed part of the orbit path shows where the satellite is in the earth's shadow,  

DLR